Time,TemperatureF,DewpointF,PressureIn,WindDirection,WindDirectionDegrees,WindSpeedMPH,WindSpeedGustMPH,Humidity,HourlyPrecipIn,Conditions,Clouds,dailyrainin,SolarRadiationWatts/m^2,SoftwareType,DateUTC
2013-04-23 00:00:00,56.1,39.0,30.11,SW,229,0.0,0.0,53,0.00,,,0.00,0,weatherlink.com 1.10,2013-04-23 04:00:00,
2013-04-23 00:15:00,55.0,39.0,30.10,SW,229,0.0,0.0,55,0.00,,,0.00,0,weatherlink.com 1.10,2013-04-23 04:15:00,
2013-04-23 00:30:00,54.1,39.0,30.10,SW,229,0.0,0.0,57,0.00,,,0.00,0,weatherlink.com 1.10,2013-04-23 04:30:00,
2013-04-23 00:45:00,53.9,39.0,30.10,SW,221,0.0,4.0,58,0.00,,,0.00,0,weatherlink.com 1.10,2013-04-23 04:45:00,
2013-04-23 01:00:00,53.4,39.0,30.10,SW,221,0.0,1.0,59,0.00,,,0.00,0,weatherlink.com 1.10,2013-04-23 05:00:00,
2013-04-23 01:15:00,54.1,40.0,30.10,SW,221,0.0,0.0,59,0.00,,,0.00,0,weatherlink.com 1.10,2013-04-23 05:15:00,
2013-04-23 01:30:00,53.8,40.0,30.10,SW,221,0.0,0.0,59,0.00,,,0.00,0,weatherlink.com 1.10,2013-04-23 05:30:00,
2013-04-23 01:45:00,53.2,39.0,30.10,SW,221,0.0,0.0,60,0.00,,,0.00,0,weatherlink.com 1.10,2013-04-23 05:45:00,
2013-04-23 02:00:00,52.8,39.0,30.09,SW,221,0.0,0.0,61,0.00,,,0.00,0,weatherlink.com 1.10,2013-04-23 06:00:00,
2013-04-23 02:15:00,53.5,40.0,30.09,SSE,164,0.0,6.0,60,0.00,,,0.00,0,weatherlink.com 1.10,2013-04-23 06:15:00,
2013-04-23 02:30:00,53.7,40.0,30.09,SSE,164,0.0,2.0,60,0.00,,,0.00,0,weatherlink.com 1.10,2013-04-23 06:30:00,
2013-04-23 02:45:00,53.8,40.0,30.08,SSE,164,0.0,2.0,60,0.00,,,0.00,0,weatherlink.com 1.10,2013-04-23 06:45:00,
2013-04-23 03:00:00,53.7,40.0,30.07,SSE,164,0.0,0.0,60,0.00,,,0.00,0,weatherlink.com 1.10,2013-04-23 07:00:00,
2013-04-23 03:15:00,53.5,40.0,30.07,SSE,164,0.0,1.0,61,0.00,,,0.00,0,weatherlink.com 1.10,2013-04-23 07:15:00,
2013-04-23 03:30:00,53.8,40.0,30.06,SSE,164,0.0,4.0,60,0.00,,,0.00,0,weatherlink.com 1.10,2013-04-23 07:30:00,
2013-04-23 03:45:00,54.2,40.0,30.05,SSE,164,0.0,0.0,60,0.00,,,0.00,0,weatherlink.com 1.10,2013-04-23 07:45:00,
2013-04-23 04:00:00,53.9,41.0,30.05,SSE,164,0.0,0.0,61,0.00,,,0.00,0,weatherlink.com 1.10,2013-04-23 08:00:00,
2013-04-23 04:15:00,53.7,41.0,30.04,SSE,164,0.0,1.0,62,0.00,,,0.00,0,weatherlink.com 1.10,2013-04-23 08:15:00,
2013-04-23 04:30:00,53.4,40.0,30.04,South,171,0.0,5.0,62,0.00,,,0.00,0,weatherlink.com 1.10,2013-04-23 08:30:00,
2013-04-23 04:45:00,53.9,41.0,30.05,SSW,200,0.0,4.0,61,0.00,,,0.00,0,weatherlink.com 1.10,2013-04-23 08:45:00,
2013-04-23 05:00:00,54.3,41.0,30.05,SE,134,1.0,6.0,62,0.00,,,0.00,0,weatherlink.com 1.10,2013-04-23 09:00:00,
2013-04-23 05:15:00,54.4,41.0,30.05,SSE,159,0.0,6.0,62,0.00,,,0.00,0,weatherlink.com 1.10,2013-04-23 09:15:00,
2013-04-23 05:30:00,54.7,41.0,30.05,SSE,154,1.0,5.0,60,0.00,,,0.00,0,weatherlink.com 1.10,2013-04-23 09:30:00,
2013-04-23 05:45:00,54.7,41.0,30.05,ESE,102,0.0,6.0,61,0.00,,,0.00,0,weatherlink.com 1.10,2013-04-23 09:45:00,
2013-04-23 06:00:00,54.1,41.0,30.05,South,175,0.0,2.0,61,0.00,,,0.00,0,weatherlink.com 1.10,2013-04-23 10:00:00,
2013-04-23 06:15:00,53.9,41.0,30.05,South,177,0.0,4.0,61,0.00,,,0.00,0,weatherlink.com 1.10,2013-04-23 10:15:00,
2013-04-23 06:30:00,53.3,40.0,30.03,ESE,123,1.0,4.0,62,0.00,,,0.00,0,weatherlink.com 1.10,2013-04-23 10:30:00,
2013-04-23 06:45:00,53.2,40.0,30.02,ESE,115,0.0,2.0,62,0.00,,,0.00,0,weatherlink.com 1.10,2013-04-23 10:45:00,
2013-04-23 07:00:00,53.5,41.0,30.03,SSE,153,0.0,4.0,62,0.00,,,0.00,0,weatherlink.com 1.10,2013-04-23 11:00:00,
2013-04-23 07:16:00,53.7,40.0,30.03,SSW,202,0.0,2.0,61,0.00,,,0.00,18,weatherlink.com 1.10,2013-04-23 11:16:00,
2013-04-23 07:31:00,53.7,40.0,30.03,SE,146,0.0,2.0,61,0.00,,,0.00,49,weatherlink.com 1.10,2013-04-23 11:31:00,
2013-04-23 07:46:00,54.1,42.0,30.04,SSE,152,0.0,4.0,63,0.00,,,0.00,76,weatherlink.com 1.10,2013-04-23 11:46:00,
2013-04-23 08:01:00,55.1,41.0,30.04,SSE,164,1.0,5.0,59,0.00,,,0.00,83,weatherlink.com 1.10,2013-04-23 12:01:00,
2013-04-23 08:16:00,56.0,43.0,30.04,SSW,202,1.0,6.0,61,0.00,,,0.00,102,weatherlink.com 1.10,2013-04-23 12:16:00,
2013-04-23 08:31:00,56.3,43.0,30.04,ESE,123,0.0,2.0,62,0.00,,,0.00,116,weatherlink.com 1.10,2013-04-23 12:31:00,
2013-04-23 08:46:00,56.9,43.0,30.04,South,179,1.0,6.0,60,0.00,,,0.00,137,weatherlink.com 1.10,2013-04-23 12:46:00,
2013-04-23 09:01:00,57.7,44.0,30.04,SE,140,4.0,5.0,61,0.00,,,0.00,193,weatherlink.com 1.10,2013-04-23 13:01:00,
2013-04-23 09:16:00,58.6,44.0,30.04,South,189,3.0,8.0,59,0.00,,,0.00,237,weatherlink.com 1.10,2013-04-23 13:16:00,
2013-04-23 09:31:00,59.3,44.0,30.04,SSW,193,5.0,11.0,58,0.00,,,0.00,237,weatherlink.com 1.10,2013-04-23 13:31:00,
2013-04-23 09:46:00,59.6,45.0,30.03,SW,219,1.0,11.0,58,0.00,,,0.00,246,weatherlink.com 1.10,2013-04-23 13:46:00,
2013-04-23 10:01:00,59.9,45.0,30.03,ESE,117,5.0,10.0,58,0.00,,,0.00,241,weatherlink.com 1.10,2013-04-23 14:01:00,
2013-04-23 10:16:00,60.2,46.0,30.02,South,171,2.0,8.0,60,0.00,,,0.00,232,weatherlink.com 1.10,2013-04-23 14:16:00,
2013-04-23 10:31:00,60.6,46.0,30.03,SW,215,0.0,8.0,59,0.00,,,0.00,239,weatherlink.com 1.10,2013-04-23 14:31:00,
2013-04-23 10:46:00,61.1,46.0,30.03,SSE,153,3.0,9.0,59,0.00,,,0.00,278,weatherlink.com 1.10,2013-04-23 14:46:00,
2013-04-23 11:01:00,62.0,48.0,30.04,SW,232,1.0,6.0,60,0.00,,,0.00,311,weatherlink.com 1.10,2013-04-23 15:01:00,
2013-04-23 11:17:00,62.7,49.0,30.04,NW,308,4.0,12.0,61,0.00,,,0.00,345,weatherlink.com 1.10,2013-04-23 15:17:00,
2013-04-23 11:31:00,63.2,49.0,30.04,SSW,207,5.0,9.0,60,0.00,,,0.00,272,weatherlink.com 1.10,2013-04-23 15:31:00,
2013-04-23 11:46:00,63.8,50.0,30.03,SSW,205,9.0,11.0,62,0.00,,,0.00,334,weatherlink.com 1.10,2013-04-23 15:46:00,
2013-04-23 12:01:00,64.1,52.0,30.03,SSW,201,4.0,14.0,64,0.00,,,0.00,274,weatherlink.com 1.10,2013-04-23 16:01:00,
2013-04-23 12:16:00,63.8,52.0,30.03,SSW,194,5.0,19.0,65,0.00,,,0.00,281,weatherlink.com 1.10,2013-04-23 16:16:00,
2013-04-23 12:31:00,63.9,52.0,30.02,SSW,200,4.0,14.0,66,0.00,,,0.00,309,weatherlink.com 1.10,2013-04-23 16:31:00,
2013-04-23 12:46:00,64.1,52.0,30.02,SE,140,8.0,18.0,65,0.00,,,0.00,364,weatherlink.com 1.10,2013-04-23 16:46:00,
2013-04-23 13:01:00,64.0,52.0,30.01,SSW,207,6.0,13.0,65,0.00,,,0.00,190,weatherlink.com 1.10,2013-04-23 17:01:00,
2013-04-23 13:17:00,63.4,52.0,30.02,SSW,209,8.0,14.0,66,0.00,,,0.00,97,weatherlink.com 1.10,2013-04-23 17:17:00,
2013-04-23 13:32:00,61.1,54.0,30.02,SW,227,5.0,15.0,76,0.00,,,0.00,67,weatherlink.com 1.10,2013-04-23 17:32:00,
2013-04-23 13:47:00,58.9,53.0,30.02,SSW,208,12.0,15.0,82,0.02,,,0.02,102,weatherlink.com 1.10,2013-04-23 17:47:00,
2013-04-23 14:02:00,57.8,54.0,30.02,South,183,5.0,8.0,87,0.04,,,0.04,102,weatherlink.com 1.10,2013-04-23 18:02:00,
2013-04-23 14:17:00,57.6,55.0,30.01,SSW,208,0.0,7.0,90,0.07,,,0.07,113,weatherlink.com 1.10,2013-04-23 18:17:00,
2013-04-23 14:32:00,57.4,55.0,30.00,SSW,209,3.0,9.0,91,0.10,,,0.10,141,weatherlink.com 1.10,2013-04-23 18:32:00,
2013-04-23 14:47:00,57.3,55.0,30.00,SW,220,4.0,9.0,91,0.10,,,0.12,151,weatherlink.com 1.10,2013-04-23 18:47:00,
2013-04-23 15:02:00,57.2,55.0,29.98,East,91,4.0,7.0,91,0.09,,,0.13,74,weatherlink.com 1.10,2013-04-23 19:02:00,
2013-04-23 15:17:00,57.1,55.0,29.96,East,84,3.0,8.0,92,0.05,,,0.13,95,weatherlink.com 1.10,2013-04-23 19:17:00,
2013-04-23 15:32:00,57.5,56.0,29.93,SSE,168,4.0,4.0,93,0.04,,,0.14,234,weatherlink.com 1.10,2013-04-23 19:32:00,
2013-04-23 15:47:00,57.9,56.0,29.94,SW,215,4.0,9.0,93,0.02,,,0.14,214,weatherlink.com 1.10,2013-04-23 19:47:00,
2013-04-23 16:02:00,58.0,56.0,29.93,SSW,202,0.0,6.0,92,0.01,,,0.14,135,weatherlink.com 1.10,2013-04-23 20:02:00,
2013-04-23 16:17:00,58.2,56.0,29.91,SE,143,2.0,8.0,91,0.01,,,0.14,102,weatherlink.com 1.10,2013-04-23 20:17:00,
2013-04-23 16:32:00,58.2,55.0,29.91,SSE,167,0.0,5.0,90,0.00,,,0.14,86,weatherlink.com 1.10,2013-04-23 20:32:00,
2013-04-23 16:47:00,58.4,56.0,29.90,SSW,205,2.0,8.0,91,0.00,,,0.14,107,weatherlink.com 1.10,2013-04-23 20:47:00,
2013-04-23 17:02:00,58.7,56.0,29.91,SSW,212,2.0,5.0,91,0.00,,,0.14,62,weatherlink.com 1.10,2013-04-23 21:02:00,
2013-04-23 17:17:00,58.7,56.0,29.91,SSW,209,6.0,7.0,90,0.00,,,0.14,46,weatherlink.com 1.10,2013-04-23 21:17:00,
2013-04-23 17:32:00,58.8,56.0,29.90,SSE,153,1.0,9.0,89,0.00,,,0.14,93,weatherlink.com 1.10,2013-04-23 21:32:00,
2013-04-23 17:47:00,58.8,56.0,29.89,SW,224,0.0,7.0,89,0.00,,,0.14,18,weatherlink.com 1.10,2013-04-23 21:47:00,
2013-04-23 18:02:00,58.7,56.0,29.89,SSE,148,4.0,8.0,90,0.02,,,0.16,69,weatherlink.com 1.10,2013-04-23 22:02:00,
2013-04-23 18:17:00,58.7,56.0,29.87,SSE,148,5.0,9.0,91,0.02,,,0.16,49,weatherlink.com 1.10,2013-04-23 22:17:00,
2013-04-23 18:32:00,58.9,56.0,29.87,SSE,154,3.0,7.0,90,0.02,,,0.16,72,weatherlink.com 1.10,2013-04-23 22:32:00,
2013-04-23 18:47:00,58.9,56.0,29.86,South,184,1.0,7.0,89,0.02,,,0.16,33,weatherlink.com 1.10,2013-04-23 22:47:00,
2013-04-23 19:02:00,58.9,56.0,29.86,SE,140,0.0,8.0,89,0.00,,,0.16,46,weatherlink.com 1.10,2013-04-23 23:02:00,
2013-04-23 19:17:00,59.0,55.0,29.84,South,174,2.0,8.0,87,0.00,,,0.16,33,weatherlink.com 1.10,2013-04-23 23:17:00,
2013-04-23 19:32:00,59.0,55.0,29.84,SSE,168,0.0,9.0,87,0.00,,,0.16,14,weatherlink.com 1.10,2013-04-23 23:32:00,
2013-04-23 19:47:00,59.1,55.0,29.83,SE,142,2.0,8.0,86,0.00,,,0.16,7,weatherlink.com 1.10,2013-04-23 23:47:00,
2013-04-23 20:02:00,59.1,55.0,29.82,ENE,69,0.0,6.0,86,0.00,,,0.16,19,weatherlink.com 1.10,2013-04-24 00:02:00,
2013-04-23 20:17:00,59.2,55.0,29.82,SSE,163,5.0,8.0,85,0.00,,,0.16,0,weatherlink.com 1.10,2013-04-24 00:17:00,
2013-04-23 20:32:00,59.3,55.0,29.81,South,177,0.0,8.0,84,0.00,,,0.16,0,weatherlink.com 1.10,2013-04-24 00:32:00,
2013-04-23 20:47:00,59.5,55.0,29.81,SSW,194,2.0,8.0,84,0.00,,,0.16,0,weatherlink.com 1.10,2013-04-24 00:47:00,
2013-04-23 21:02:00,59.6,54.0,29.81,SSW,202,1.0,8.0,83,0.00,,,0.16,0,weatherlink.com 1.10,2013-04-24 01:02:00,
2013-04-23 21:17:00,59.9,54.0,29.80,South,182,4.0,9.0,82,0.00,,,0.16,0,weatherlink.com 1.10,2013-04-24 01:17:00,
2013-04-23 21:32:00,60.2,54.0,29.80,SSE,155,0.0,8.0,81,0.00,,,0.16,0,weatherlink.com 1.10,2013-04-24 01:32:00,
2013-04-23 21:47:00,60.9,54.0,29.81,SW,215,1.0,7.0,79,0.00,,,0.16,0,weatherlink.com 1.10,2013-04-24 01:47:00,
2013-04-23 22:02:00,60.2,55.0,29.80,SW,217,0.0,2.0,83,0.01,,,0.17,0,weatherlink.com 1.10,2013-04-24 02:02:00,
2013-04-23 22:17:00,58.9,55.0,29.79,North,5,0.0,5.0,87,0.03,,,0.19,0,weatherlink.com 1.10,2013-04-24 02:17:00,
2013-04-23 22:32:00,58.0,55.0,29.77,NE,41,1.0,2.0,89,0.04,,,0.20,0,weatherlink.com 1.10,2013-04-24 02:32:00,
2013-04-23 22:47:00,58.0,55.0,29.78,West,271,0.0,4.0,89,0.05,,,0.21,0,weatherlink.com 1.10,2013-04-24 02:47:00,
2013-04-23 23:18:00,57.6,55.0,29.80,WNW,287,2.0,10.0,91,0.04,,,0.23,0,weatherlink.com 1.10,2013-04-24 03:18:00,
2013-04-23 23:33:00,57.4,55.0,29.79,West,265,1.0,5.0,92,0.04,,,0.24,0,weatherlink.com 1.10,2013-04-24 03:33:00,
2013-04-23 23:48:00,57.2,55.0,29.81,West,275,4.0,6.0,93,0.04,,,0.25,0,weatherlink.com 1.10,2013-04-24 03:48:00,